User: anonymous   Login
Location: Laterina
(43.5167°N, 11.7167°E)
Time: 05:03:39
(UTC+00:00)
Language:

Cosmos 2034 Rocket - Orbit

View from above orbital plane
View from above orbital plane
View from above satellite
View from above satellite

Ground track
Ground track

The orbit data is extracted from the following two-line orbital elements,

1 20150U 89059B   20333.51659745 +.00000036 +00000-0 +21758-4 0  9998
2 20150 082.9421 239.1068 0029329 005.8305 167.0712 13.75639901573453
Epoch (UTC): 28 November 2020 12:23:54
Eccentricity: 0.0029329
inclination: 82.9421°
perigee height: 958 km
apogee height: 1001 km
right ascension of ascending node: 239.1068°
argument of perigee: 5.8305°
revolutions per day: 13.75639901
mean anomaly at epoch: 167.0712°
orbit number at epoch: 57345

The dashed part of the orbit path shows where the satellite is in the earth's shadow,  

DLR